sat.trackr.live / text

‹ back to catalog

QIANFAN-51

NORAD 62252 · 2024-232R

PAYLOAD ACTIVE UNKNOWN

§ Identity

Operator
Country
PRC
Launch date
2024-12-05
Launch site
TAISC
Launch vehicle
Mass (kg)
RCS (m²)

External: N2YO · Heavens-Above · Gunter

§ Orbital elements

Epoch: 2026-09-22T21:06:58.037760Z

Period
106.59 min
Inclination
89.0166°
Eccentricity
0.0015266
Mean motion
13.51029444 rev/d
Perigee alt
1,057.1 km
Apogee alt
1,079.8 km
Semi-major
7,446.6 km
B*
1.3557e-4
RAAN
12.7267°
Arg perigee
100.3191°
Mean anomaly
259.9683°
Rev number
10,622

§ Raw data

QIANFAN-511 62252U 24232R   26265.87983840  .00000100  00000+0  13557-3 0  99922 62252  89.0166  12.7267 0015266 100.3191 259.9683 13.51029444106225

JSON: /api/v1/satellites/62252 · /tle

For live sub-satellite position, see the globe view (requires WebGL).

§ Visibility from observer

Set your observer location to see the next 7 days of passes ≥ 10°. The values pass through the URL so the page stays shareable.

No JS? Fill the form by hand. The geolocation button needs JavaScript.